Tracking 21092 objects as of 14-Aug-2020
HD Live streaming from Space Station
objects crossing your sky now
Track the most recent launched group of Starlink satellites

GGSE 1 (GGRS)

Track GGSE 1 (GGRS) now!
10-day predictions
GGSE 1 (GGRS) is classified as:


NORAD ID: 728
Int'l Code: 1964-001B
Perigee: 899.8 km
Apogee: 921.7 km
Inclination: 69.9 °
Period: 103.1 minutes
Semi major axis: 7281 km
RCS: 0.3887 m2 (medium)
Launch date: January 11, 1964
Source: United States (US)
Launch site: AIR FORCE WESTERN TEST RANGE (AFWTR)
aabbcc
Your satellite tracking list
Your tracking list is empty




NASA's NSSDC Master Catalog

Two Line Element Set (TLE):
1   728U 64001B   20227.39298494 -.00000019 +00000-0 +25029-4 0  9992
2   728 069.9078 113.9930 0015020 222.7008 137.2932 13.97166707881712
Source of the keplerian elements: AFSPC